Tracking 29892 objects as of 21-Nov-2024
HD Live streaming from Space Station
objects crossing your sky now

TEMISAT

Track TEMISAT now!
10-day predictions
TEMISAT is classified as:


NORAD ID: 22783
Int'l Code: 1993-055B
Perigee: 940.4 km
Apogee: 974.5 km
Inclination: 82.6 °
Period: 104.1 minutes
Semi major axis: 7328 km
RCS: 0.2915 m2 (medium)
Launch date: August 31, 1993
Source: Italy (IT)
Launch site: PLESETSK MISSILE AND SPACE COMPLEX (PKMTR)
Your satellite tracking list
Your tracking list is empty




NASA's NSSDC Master Catalog

Two Line Element Set (TLE):
1 22783U 93055B   24325.63172709  .00000085  00000-0  63064-4 0  9991
2 22783  82.5538  33.0550 0023211  21.3548 338.8575 13.83837839576384
Source of the keplerian elements: AFSPC